Wind_Speed
45 45 45 45 45 44 44 42 41 42 43 43 44 45 47 48 49 50 52 54 55 56 57 57 58 59 61 61 62 62 63 63 63 64 65 64 65 65 65 65 64 63 63
47 47 47 47 46 45 44 44 44 46 46 47 48 50 51 52 53 55 57 58 59 60 60 60 60 61 62 63 63 63 63 63 63 63 63 64 63 63 62 61 61 60 59
45 45 45 45 45 45 45 46 47 48 49 51 52 53 54 55 57 58 59 59 60 60 60 61 61 62 62 63 62 62 62 62 62 61 61 61 61 61 59 58 57 56 54
41 42 42 42 43 44 45 46 48 49 51 53 53 54 55 56 57 59 59 59 61 61 61 62 62 62 61 61 61 61 60 60 60 60 59 58 57 55 54 52 50 49 47
38 40 42 42 43 44 46 47 49 50 51 52 54 56 57 57 58 59 59 60 61 62 62 62 61 60 60 59 58 58 58 57 56 55 53 51 50 48 47 46 43 40 39
39 39 39 41 43 44 45 46 47 48 50 52 53 56 57 58 58 58 59 60 61 61 60 59 58 57 56 55 54 53 51 50 48 47 45 44 43 42 40 38 35 33 31
34 34 36 37 38 40 42 44 46 48 50 52 54 56 57 57 58 58 58 59 58 57 55 54 53 51 49 48 47 45 44 42 40 39 37 36 35 34 31 30 29 28 28
32 33 35 36 38 40 42 44 46 47 49 51 53 54 55 56 56 56 55 54 52 50 48 47 45 43 42 40 39 39 37 36 34 31 29 27 26 24 23 22 22 24 26
32 34 36 37 39 40 42 43 45 46 48 49 51 51 52 53 52 51 50 48 46 45 42 41 38 37 34 33 32 31 30 28 26 24 21 19 18 18 18 18 19 20 22
31 32 34 35 36 38 39 41 42 44 45 46 46 47 47 47 45 44 42 41 39 36 34 32 31 29 27 26 24 23 22 20 18 17 15 14 14 14 15 17 18 20 22
29 30 32 33 34 35 36 38 39 40 41 41 41 41 40 39 38 35 33 31 29 27 25 23 22 20 19 18 17 16 15 13 13 12 12 13 14 15 16 17 19 21 23
27 28 29 30 31 33 34 35 35 35 36 36 36 35 33 32 29 27 25 22 20 18 16 14 13 12 11 11 10 9 9 9 10 10 11 13 14 16 17 18 20 21 23
24 25 26 28 29 30 30 30 31 31 31 31 30 29 27 25 23 21 18 15 13 12 10 8 7 7 7 7 7 7 8 9 10 11 12 14 15 16 17 18 20 22 24
22 23 24 25 26 27 27 27 27 27 26 25 24 22 21 19 16 13 11 10 8 7 7 7 7 7 7 8 8 8 9 10 11 12 14 15 16 17 18 19 21 23 24
20 21 21 23 23 23 23 23 23 21 21 20 19 17 15 13 10 9 8 8 8 8 9 10 10 10 10 10 10 10 11 12 13 15 16 17 18 19 20 20 21 22 22
18 19 20 20 20 20 20 20 19 18 18 17 15 14 12 10 9 9 9 10 10 10 11 11 11 11 11 12 12 12 13 14 16 17 17 18 19 20 21 21 22 22 21
16 17 17 17 17 17 17 17 16 15 15 14 13 11 10 10 10 10 11 11 12 12 12 12 12 12 12 13 14 14 15 16 17 18 19 20 21 22 22 22 22 21 21
15 16 16 15 15 15 15 15 15 14 13 11 10 10 9 10 10 11 12 12 12 12 12 12 13 13 13 14 15 15 16 17 18 19 20 21 22 23 23 23 21 21 21
14 14 13 13 13 13 13 13 13 12 11 10 9 9 9 10 10 11 11 12 12 12 12 12 13 13 14 15 15 16 17 17 18 19 21 22 23 24 24 23 21 21 21
12 12 11 11 11 12 12 12 12 11 10 10 9 9 9 10 10 11 11 11 11 12 12 13 13 13 14 15 16 16 17 18 19 20 21 22 23 24 24 23 22 21 21
10 10 9 10 10 10 11 10 10 10 9 9 9 9 10 10 10 11 11 11 11 11 12 12 13 14 14 15 15 16 17 18 19 20 21 22 23 23 23 23 22 22 21
8 8 8 8 9 9 9 9 8 8 8 8 9 9 10 10 10 10 10 11 11 11 11 12 13 13 14 14 15 16 17 18 19 20 21 22 22 23 23 23 23 22 21
7 7 7 7 8 8 8 7 7 7 7 8 8 8 9 9 9 9 9 10 10 11 11 11 12 13 14 14 15 16 17 18 19 20 20 21 21 22 22 23 23 22 21
6 7 7 7 7 7 6 6 6 6 6 6 7 7 7 8 8 8 9 9 9 10 10 11 11 12 13 14 15 16 17 18 19 20 20 20 21 21 21 21 21 21 21
7 6 6 6 6 6 5 5 5 5 5 5 5 6 6 6 7 7 8 8 9 9 10 11 11 12 13 14 15 16 17 18 18 19 20 20 20 21 21 21 20 20 20
7 7 6 6 6 5 5 4 4 4 4 4 4 5 5 5 6 7 7 8 8 9 10 10 11 12 13 14 15 16 17 17 18 19 19 19 20 20 20 20 20 20 20
Wind_Direction
272 275 278 279 281 283 285 286 285 286 287 288 287 288 289 290 291 290 290 291 290 290 289 289 289 290 290 290 289 289 288 288 288 287 287 287 288 289 290 291 292 291 291
271 274 276 278 279 279 280 280 282 285 286 286 288 289 289 289 289 289 289 290 290 289 289 289 289 289 289 289 289 288 288 288 288 287 288 289 290 291 293 293 293 293 294
269 270 272 274 274 277 278 279 281 283 285 286 287 287 287 288 289 290 290 290 289 288 288 288 288 288 288 288 288 288 288 288 289 289 289 290 291 292 293 294 294 295 296
270 272 273 274 275 278 280 281 282 284 285 286 286 287 287 287 287 288 288 288 288 288 287 287 288 288 288 288 289 289 290 290 291 291 291 292 292 293 294 295 296 297 298
274 274 275 276 278 281 282 284 285 285 286 286 286 287 287 287 287 287 287 288 288 288 288 288 289 289 289 289 290 290 291 291 292 293 293 294 294 295 295 296 297 299 300
277 279 281 282 282 283 283 284 284 285 285 286 286 287 287 288 288 289 289 290 290 290 290 290 290 290 290 291 291 292 292 292 293 294 294 294 295 296 297 298 299 301 302
277 280 283 284 284 284 285 285 285 286 287 288 289 289 290 291 291 291 291 291 291 291 291 291 291 291 292 292 293 293 293 294 295 296 296 297 297 298 298 299 302 305 307
281 283 284 286 287 288 288 288 288 289 290 291 292 292 292 292 293 294 294 294 293 292 292 292 292 293 294 294 295 296 298 299 300 300 300 300 301 301 303 304 307 310 313
284 285 287 289 290 291 291 291 292 293 294 294 294 295 295 295 295 295 295 294 293 293 292 292 293 294 295 296 297 299 301 303 304 306 307 307 307 309 311 314 316 318 319
287 288 290 292 293 294 295 296 297 298 299 299 299 300 300 299 299 298 297 296 296 296 296 296 296 296 298 299 300 303 306 310 313 316 318 319 321 322 322 323 325 325 324
292 293 294 296 297 299 300 300 301 302 303 303 303 303 303 303 303 303 302 301 301 301 301 300 300 302 304 306 309 313 316 320 326 330 334 336 336 335 334 334 332 330 329
297 298 299 301 302 303 304 305 306 307 307 308 308 308 307 307 308 309 308 309 310 310 310 311 313 315 319 323 328 334 338 342 347 350 349 347 345 344 341 338 336 334 333
301 302 304 305 306 307 309 310 311 312 312 312 313 313 313 314 315 315 316 317 320 326 332 339 347 354 360 5 7 9 10 10 6 2 358 355 352 348 345 342 341 340 340
307 308 310 311 312 314 316 316 316 316 318 319 321 321 322 324 325 329 335 342 352 7 22 36 43 45 41 37 34 30 25 20 15 10 5 1 358 355 352 350 348 347 346
312 314 316 318 320 321 323 324 324 325 327 329 332 335 338 343 350 1 13 27 43 55 59 62 62 59 54 46 41 37 32 28 22 16 11 7 4 1 358 356 354 353 354
316 318 321 323 326 327 330 331 332 333 337 343 349 355 3 13 27 42 52 60 65 68 71 70 67 61 54 49 47 42 37 31 25 19 16 13 10 7 5 3 2 3 5
317 320 324 327 331 334 338 340 341 344 348 355 3 12 24 37 50 61 68 73 75 75 73 69 64 60 56 53 48 41 34 28 24 22 21 19 17 14 12 10 10 12 14
318 320 325 329 334 340 346 349 352 356 1 8 17 28 40 51 61 69 75 78 76 73 69 64 62 59 55 49 42 35 31 29 28 27 26 23 20 18 17 17 18 20 20
321 322 327 332 338 346 353 357 1 6 13 21 31 40 52 61 68 72 74 75 75 71 65 62 60 56 50 43 37 34 33 33 32 29 26 23 22 21 21 22 24 24 24
322 325 330 337 345 353 359 4 7 14 24 34 44 54 63 69 73 75 74 74 71 66 62 59 56 50 43 38 36 37 37 36 32 28 25 24 23 23 24 25 27 27 29
325 329 336 343 349 356 2 8 13 23 33 43 53 62 68 73 76 76 74 70 66 61 58 55 48 42 39 39 40 40 37 34 30 27 26 24 24 25 26 28 29 31 33
331 336 343 348 352 358 4 11 20 29 40 49 58 66 71 74 75 74 71 65 60 57 53 47 42 40 41 42 40 37 34 31 28 27 26 25 26 27 28 30 32 34 36
342 343 346 351 356 2 9 17 25 35 45 54 62 68 70 71 70 69 65 60 57 54 48 43 42 43 43 41 37 34 31 29 27 25 25 26 27 28 30 32 34 36 39
353 354 354 357 1 6 11 19 28 39 49 58 62 65 67 67 65 62 58 55 53 50 45 45 46 45 41 38 35 32 30 28 27 26 27 28 29 31 33 35 36 38 41
2 2 3 3 5 8 12 20 29 40 48 56 61 63 64 62 59 55 52 51 51 49 48 47 46 42 37 34 32 29 28 28 28 29 29 30 32 34 35 37 39 41 43
10 9 8 8 11 14 20 25 32 40 49 56 60 61 61 59 57 55 53 53 53 51 49 47 44 39 35 33 30 28 27 28 29 29 30 31 33 35 37 39 41 43 45
Height
5799 5798 5797 5795 5794 5792 5790 5789 5788 5786 5784 5782 5780 5778 5775 5773 5770 5767 5764 5761 5757 5753 5749 5745 5742 5737 5733 5729 5724 5719 5715 5710 5705 5700 5694 5688 5682 5678 5673 5667 5661 5656 5650
5789 5788 5786 5784 5783 5782 5780 5778 5777 5775 5773 5771 5769 5766 5763 5760 5757 5754 5750 5746 5742 5738 5734 5729 5725 5721 5716 5711 5706 5701 5697 5692 5688 5683 5677 5671 5665 5660 5656 5650 5644 5638 5632
5779 5777 5776 5774 5772 5771 5769 5767 5765 5763 5761 5758 5756 5753 5749 5746 5742 5739 5735 5731 5727 5722 5717 5713 5708 5704 5699 5694 5689 5684 5679 5674 5670 5666 5661 5655 5649 5644 5640 5635 5628 5622 5616
5768 5767 5765 5764 5762 5760 5758 5756 5753 5751 5748 5745 5742 5739 5735 5731 5727 5723 5719 5715 5711 5706 5701 5696 5691 5687 5682 5677 5672 5667 5663 5658 5653 5649 5644 5639 5634 5629 5625 5621 5616 5609 5603
5758 5756 5755 5753 5752 5749 5747 5744 5742 5739 5735 5731 5728 5724 5720 5716 5712 5707 5703 5699 5694 5689 5684 5679 5674 5669 5664 5660 5655 5651 5647 5642 5637 5633 5629 5625 5620 5616 5611 5607 5603 5598 5592
5748 5746 5744 5742 5740 5738 5735 5733 5729 5726 5722 5719 5714 5711 5706 5702 5697 5692 5688 5683 5678 5673 5668 5662 5657 5653 5648 5644 5640 5636 5632 5628 5624 5620 5616 5612 5609 5604 5600 5596 5593 5589 5585
5738 5736 5734 5731 5729 5726 5723 5721 5717 5713 5710 5705 5701 5697 5692 5687 5682 5677 5671 5667 5662 5657 5652 5647 5642 5638 5634 5630 5626 5622 5619 5616 5613 5610 5606 5603 5599 5595 5592 5588 5584 5580 5576
5728 5726 5724 5721 5718 5715 5712 5709 5705 5701 5697 5692 5688 5683 5678 5672 5667 5662 5656 5651 5647 5642 5638 5633 5629 5625 5622 5619 5616 5613 5610 5606 5604 5600 5598 5595 5592 5588 5585 5582 5579 5575 5570
5719 5717 5714 5711 5708 5705 5702 5698 5694 5689 5684 5680 5674 5669 5663 5658 5653 5648 5642 5638 5633 5629 5625 5621 5618 5615 5612 5610 5608 5604 5601 5599 5596 5594 5592 5589 5586 5583 5580 5577 5574 5570 5566
5711 5708 5705 5702 5699 5696 5692 5688 5683 5678 5673 5667 5662 5656 5651 5646 5640 5635 5630 5625 5621 5617 5614 5611 5609 5607 5605 5603 5601 5599 5596 5594 5592 5590 5588 5585 5583 5580 5577 5573 5570 5566 5561
5703 5700 5697 5694 5690 5687 5682 5678 5673 5668 5662 5657 5651 5646 5641 5635 5630 5625 5620 5616 5613 5609 5606 5604 5603 5601 5599 5598 5597 5595 5593 5591 5589 5587 5585 5583 5580 5577 5573 5570 5566 5562 5557
5695 5692 5689 5686 5682 5678 5674 5669 5664 5659 5653 5648 5642 5637 5632 5627 5622 5618 5614 5610 5607 5604 5602 5600 5599 5598 5597 5596 5595 5593 5592 5590 5588 5586 5584 5581 5578 5575 5571 5567 5563 5559 5554
5689 5686 5683 5679 5675 5671 5667 5661 5656 5651 5646 5641 5636 5630 5625 5621 5617 5613 5609 5606 5604 5602 5600 5599 5598 5597 5596 5595 5594 5593 5591 5590 5588 5586 5583 5580 5577 5573 5569 5565 5561 5556 5551
5683 5680 5677 5673 5669 5665 5660 5655 5651 5646 5641 5636 5631 5626 5621 5617 5613 5610 5608 5605 5603 5601 5600 5599 5598 5598 5597 5596 5595 5594 5592 5591 5589 5586 5583 5580 5576 5572 5568 5564 5559 5554 5548
5678 5675 5671 5668 5664 5660 5655 5651 5646 5641 5637 5632 5628 5623 5619 5616 5612 5610 5607 5606 5604 5603 5602 5601 5601 5600 5600 5599 5597 5596 5594 5592 5590 5587 5584 5580 5576 5572 5567 5563 5558 5553 5547
5674 5671 5667 5664 5660 5656 5652 5648 5643 5639 5635 5631 5627 5623 5619 5616 5613 5611 5609 5608 5607 5606 5605 5605 5604 5604 5603 5601 5600 5598 5596 5594 5591 5588 5584 5580 5576 5572 5567 5562 5557 5552 5547
5670 5667 5664 5661 5658 5654 5650 5646 5642 5638 5634 5630 5627 5624 5621 5618 5616 5614 5613 5612 5611 5610 5609 5609 5608 5607 5606 5604 5603 5601 5599 5596 5593 5589 5585 5581 5577 5572 5567 5562 5557 5553 5548
5667 5664 5661 5658 5655 5652 5649 5645 5641 5638 5634 5631 5628 5626 5623 5621 5619 5618 5616 5616 5615 5614 5613 5612 5611 5610 5609 5607 5606 5603 5601 5598 5595 5591 5587 5583 5578 5574 5569 5564 5559 5554 5550
5664 5661 5659 5656 5654 5651 5648 5645 5641 5638 5635 5633 5630 5628 5626 5624 5623 5621 5620 5619 5619 5618 5617 5616 5615 5614 5612 5610 5608 5606 5603 5600 5597 5593 5589 5585 5581 5576 5571 5566 5561 5557 5553
5661 5659 5657 5655 5653 5650 5647 5645 5642 5639 5637 5634 5632 5630 5629 5627 5626 5625 5624 5623 5622 5622 5620 5619 5618 5617 5615 5613 5610 5608 5605 5602 5599 5595 5592 5587 5583 5578 5573 5569 5564 5560 5556
5659 5657 5655 5654 5652 5650 5647 5645 5643 5641 5639 5637 5635 5633 5632 5630 5629 5629 5628 5627 5626 5625 5624 5623 5621 5620 5617 5615 5613 5611 5608 5605 5602 5598 5594 5590 5585 5581 5576 5572 5567 5563 5559
5657 5656 5655 5653 5651 5650 5648 5646 5644 5642 5640 5639 5637 5636 5635 5634 5633 5632 5631 5630 5629 5628 5627 5626 5624 5622 5620 5618 5616 5613 5611 5608 5604 5600 5597 5593 5588 5584 5580 5575 5571 5567 5563
5656 5655 5654 5653 5651 5650 5648 5647 5645 5644 5642 5641 5640 5639 5638 5637 5636 5635 5634 5633 5632 5631 5630 5628 5627 5625 5623 5621 5618 5616 5613 5610 5607 5603 5599 5595 5591 5587 5583 5579 5575 5571 5568
5656 5655 5654 5653 5651 5650 5649 5648 5646 5645 5644 5643 5642 5641 5640 5639 5638 5638 5637 5636 5635 5634 5632 5631 5629 5627 5626 5624 5621 5619 5616 5613 5609 5606 5602 5599 5595 5591 5587 5583 5579 5576 5572
5655 5654 5653 5652 5651 5650 5649 5648 5647 5646 5645 5645 5644 5643 5642 5641 5641 5640 5639 5638 5637 5636 5635 5633 5632 5630 5628 5626 5624 5621 5618 5615 5612 5609 5605 5602 5598 5594 5591 5587 5584 5580 5577
5656 5655 5654 5653 5652 5651 5650 5649 5648 5647 5646 5646 5645 5644 5644 5643 5642 5642 5641 5640 5639 5638 5637 5636 5634 5633 5631 5629 5626 5624 5621 5618 5615 5611 5608 5605 5601 5598 5595 5591 5588 5585 5582